Temperature
31 31 31 31 31 31 31 31 30 30 29 28 28 27 27 26 26 25 24 24 23 22 21 21 20 20 20 19 19 19 19 18 18 18 18 18 18 18 17 17 17 17 17 17
29 31 31 31 31 32 31 31 31 30 29 29 28 27 27 26 25 25 24 23 22 22 21 20 20 19 19 19 19 19 18 18 18 18 17 17 17 17 17 17 17 17 17 17
28 30 30 30 31 31 31 31 31 29 28 28 27 27 26 26 25 25 24 22 22 21 21 20 20 19 19 19 18 18 18 18 18 17 17 17 17 17 17 17 17 17 16 16
28 28 27 29 31 31 31 30 30 29 28 28 27 26 25 25 24 24 23 22 21 21 21 20 20 19 19 18 18 18 18 17 17 17 17 17 16 16 16 16 16 16 16 16
27 27 28 29 30 30 29 28 29 28 28 27 26 26 25 24 23 23 22 21 21 20 20 20 19 19 18 18 18 18 17 17 17 17 17 17 16 16 16 16 16 16 16 16
27 26 26 27 29 29 29 27 28 27 27 27 26 26 24 23 22 22 21 20 20 20 19 19 18 18 18 18 17 17 17 17 16 16 16 16 16 16 16 16 16 16 15 16
26 26 26 27 28 28 26 25 26 25 25 25 25 24 22 22 21 21 20 20 19 19 18 18 18 17 17 17 17 16 16 16 16 16 16 16 16 15 15 15 15 15 15 15
26 25 25 26 26 25 24 24 24 24 24 24 23 22 22 21 20 20 19 19 19 18 17 17 17 17 16 16 16 16 16 16 16 15 15 15 15 15 15 15 15 15 15 15
25 24 24 24 24 24 24 23 23 23 23 22 22 21 21 20 19 19 19 18 18 17 17 16 16 16 16 16 16 16 15 15 15 15 15 15 15 15 14 14 14 14 14 14
24 24 24 24 24 23 23 23 23 22 22 22 21 21 20 19 19 18 18 17 17 17 16 16 16 15 15 15 15 15 15 15 15 15 15 15 14 14 14 14 14 14 14 14
23 24 23 23 23 22 22 22 22 22 21 21 20 20 19 19 18 18 17 17 16 16 16 15 15 15 15 15 15 15 15 15 15 14 14 14 14 14 14 14 14 14 14 14
22 22 23 22 22 22 21 21 21 21 20 20 19 19 18 18 17 17 16 16 16 15 15 15 15 14 14 14 14 14 14 14 14 14 14 14 14 14 14 14 14 14 14 14
22 21 21 21 21 21 21 20 20 20 19 19 18 18 18 17 16 16 16 15 15 14 14 14 14 14 14 14 14 14 14 14 14 14 14 14 14 14 14 14 14 14 14 14
20 20 20 20 20 20 20 19 19 19 18 18 17 17 17 16 16 15 15 14 14 14 14 14 14 13 13 13 13 13 13 13 13 13 13 13 13 13 14 14 14 13 13 13
19 19 19 19 19 19 18 18 18 18 17 17 17 16 16 15 15 14 14 14 14 13 13 13 13 13 13 13 13 13 13 13 13 13 13 13 13 13 13 13 13 13 13 13
19 19 18 18 18 18 17 17 17 17 17 16 16 15 15 15 14 14 13 13 13 13 13 13 13 13 12 12 12 12 13 13 13 13 13 13 13 13 13 13 13 13 13 13
18 18 18 17 17 17 17 16 16 16 16 15 15 15 14 14 13 13 13 13 13 12 12 12 12 12 12 12 12 12 12 12 12 12 12 12 13 13 13 13 13 13 13 13
18 17 17 17 16 16 16 16 15 15 15 15 14 14 13 13 13 12 12 12 12 12 12 12 12 12 12 12 12 12 12 12 12 12 12 12 12 12 12 13 13 12 12 12
17 17 16 16 16 16 15 15 15 15 14 14 13 13 13 12 12 12 12 12 12 11 11 11 11 11 11 11 11 12 12 12 12 12 12 12 12 12 12 12 12 12 12 12
16 16 16 16 16 15 15 15 14 14 14 13 13 13 12 12 12 12 11 11 11 11 11 11 11 11 11 11 11 11 11 12 12 12 12 12 12 12 12 12 12 12 11 11
16 15 15 15 15 14 14 14 14 13 13 13 12 12 12 12 11 11 11 11 11 11 11 11 11 11 11 11 11 11 11 11 11 11 11 11 11 11 11 11 11 11 11 11
15 15 14 14 14 14 13 13 13 13 12 12 12 12 12 11 11 11 11 11 11 11 11 11 11 11 11 11 11 11 11 11 11 11 11 11 11 11 11 11 11 11 10 10
14 14 14 13 13 13 13 13 12 12 12 12 11 11 11 11 11 11 11 10 10 10 10 10 10 10 10 10 10 10 10 10 10 10 11 10 10 10 10 10 10 10 10 10
13 13 13 13 13 13 12 12 12 12 12 11 11 11 11 11 11 11 10 10 10 10 10 10 10 10 10 10 10 10 10 10 10 10 10 10 10 10 10 10 10 10 9 9
13 12 12 12 12 12 12 12 12 12 12 11 11 11 11 11 10 10 10 10 10 10 10 10 10 10 9 9 9 9 9 9 10 10 10 10 10 10 9 9 9 9 9 9
12 12 12 12 12 12 12 12 12 12 12 12 11 11 11 11 10 10 10 10 10 10 9 9 9 9 9 9 9 9 9 9 9 9 9 9 9 9 9 9 9 8 8 8
12 12 12 12 12 12 12 12 12 12 12 11 11 11 11 10 10 10 10 10 10 9 9 9 9 9 9 9 9 9 9 9 9 9 9 8 8 8 8 8 8 8 8 8
Wind_Speed
14 13 11 11 11 12 11 12 10 5 5 6 7 6 6 7 7 8 7 7 6 5 4 4 3 3 2 1 1 2 2 2 2 2 2 2 2 1 1 1 1 0 0 1
14 15 14 14 13 13 12 10 9 5 3 3 5 7 7 7 7 7 6 6 5 5 4 4 3 2 1 0 1 1 2 2 2 2 2 2 2 2 1 1 1 1 0 0
13 13 15 15 10 10 9 9 7 5 2 4 4 4 5 6 6 6 6 5 4 3 4 4 4 3 2 1 1 1 2 2 2 1 2 2 2 2 2 1 1 1 1 0
12 12 15 9 6 7 7 5 3 1 4 4 5 5 5 4 5 5 6 5 3 2 2 3 3 3 2 1 1 1 1 1 1 1 2 2 1 1 1 1 1 1 1 1
10 13 12 9 4 4 4 3 2 1 2 3 6 6 5 5 5 4 5 5 3 2 2 1 1 1 1 1 1 1 1 1 1 1 1 1 1 1 1 2 2 2 2 2
9 11 10 4 3 5 5 4 2 3 1 2 4 2 3 5 6 6 5 4 3 2 3 2 1 1 1 1 1 1 0 0 0 1 1 1 2 2 1 2 2 2 2 2
11 11 7 2 2 4 5 1 5 4 3 3 2 2 4 4 5 5 5 4 4 3 3 3 2 2 1 1 2 2 1 1 1 1 2 2 1 1 1 2 2 2 2 3
9 11 5 4 1 1 2 4 4 4 3 3 4 5 5 5 5 4 4 4 4 4 4 3 3 2 1 1 1 1 1 1 1 1 2 1 1 1 2 2 2 2 2 3
3 1 3 4 4 4 3 3 3 2 2 4 4 3 4 4 4 3 3 3 3 3 3 3 3 3 2 2 2 1 1 1 1 2 1 1 1 2 2 2 2 3 3 3
1 2 2 2 3 4 4 3 2 1 2 3 3 3 3 3 3 2 1 1 1 1 1 2 3 3 3 3 2 2 1 1 1 2 1 1 1 2 2 2 3 3 3 3
3 1 0 1 3 3 3 2 2 1 1 2 2 2 1 1 1 1 0 0 1 1 0 1 2 2 3 2 1 2 2 2 2 2 2 2 2 2 3 2 2 3 2 2
3 1 1 1 2 2 2 2 2 1 1 1 1 0 0 0 1 1 0 1 1 1 1 2 2 2 3 2 2 2 2 2 3 3 2 2 2 1 1 1 2 2 2 2
2 2 2 2 3 3 2 2 1 1 1 1 1 0 1 1 1 1 1 1 1 1 1 2 2 2 2 2 2 2 3 3 4 4 3 3 3 3 2 2 3 4 4 5
4 4 2 2 2 3 2 3 2 2 1 1 1 0 1 1 1 1 1 2 1 1 1 2 2 2 2 2 2 2 3 3 4 4 3 4 4 4 4 3 3 3 4 7
1 1 1 1 2 2 2 2 2 1 1 2 1 1 1 1 1 1 2 2 1 1 2 2 2 3 3 3 3 3 4 4 4 4 5 4 4 5 4 4 3 3 2 3
1 1 1 1 2 2 2 2 2 2 2 2 2 2 2 2 1 2 2 2 1 2 2 2 2 3 3 3 4 4 4 5 5 5 5 5 5 5 4 4 4 3 3 1
2 1 1 1 1 1 2 2 2 2 2 2 2 2 2 2 2 2 2 2 1 2 2 2 2 3 3 4 5 5 5 5 6 6 6 5 5 5 5 5 4 4 3 3
1 1 0 0 1 2 2 2 2 2 2 2 2 1 1 1 2 2 3 2 2 2 2 2 3 3 4 4 5 5 6 5 5 5 5 4 4 5 5 5 5 4 3 2
1 1 1 1 1 1 1 2 2 2 2 2 2 2 2 2 2 2 2 2 2 3 3 3 4 4 5 5 6 4 6 6 5 4 4 4 5 5 5 4 4 4 4 2
2 2 1 1 1 2 1 2 2 3 2 2 2 2 2 3 3 3 3 3 2 3 3 4 4 4 5 5 6 5 6 5 5 4 4 4 4 3 4 4 4 4 3 2
2 2 2 2 2 2 3 3 3 3 3 3 2 2 3 3 3 3 4 3 3 3 4 4 3 4 4 5 7 6 5 4 4 4 3 3 3 3 4 4 4 4 3 2
1 2 2 2 2 3 3 3 2 2 2 3 3 3 3 3 3 3 3 3 3 4 4 4 3 4 6 7 5 5 5 4 4 3 2 2 3 3 3 3 3 3 3 2
1 2 2 2 2 2 2 2 2 2 2 2 3 3 4 4 4 3 3 3 3 4 3 3 5 6 7 5 4 4 4 4 4 3 3 2 2 2 2 3 3 2 2 2
1 1 1 1 1 1 1 1 1 1 1 1 1 2 3 3 2 2 2 2 3 3 3 3 5 6 6 4 4 4 4 4 4 4 3 3 2 1 1 2 2 2 2 2
1 1 1 1 1 1 1 0 1 1 2 1 2 2 2 1 2 2 2 2 2 2 3 1 2 4 4 4 4 4 4 4 4 4 3 2 2 2 1 1 2 2 2 2
1 1 1 1 1 1 1 1 1 1 2 1 2 2 2 1 1 1 1 2 2 2 3 2 2 2 3 4 4 5 5 4 3 3 3 3 3 3 2 2 2 2 2 2
2 2 2 2 2 1 1 0 0 1 1 2 3 2 2 2 2 3 3 2 2 2 3 3 3 3 3 3 4 4 4 4 4 4 4 3 3 3 3 3 3 3 3 3
Wind_Direction
268 268 260 255 248 243 247 258 267 256 192 166 156 134 130 138 135 128 130 124 118 118 115 114 103 93 91 89 103 130 157 187 167 191 179 182 190 186 178 200 209 159 316 336
265 263 264 261 248 244 243 247 249 236 241 139 112 128 143 142 139 136 134 130 125 124 125 125 125 123 116 145 108 128 176 179 161 172 173 186 195 186 190 197 202 150 159 347
263 261 261 256 252 249 251 254 261 243 213 133 127 137 134 135 145 145 139 132 125 130 141 146 151 147 153 157 149 164 165 146 146 161 170 190 212 190 198 202 199 225 243 181
261 264 256 254 268 273 263 264 284 146 129 138 154 140 123 128 138 134 134 131 124 129 135 155 158 150 154 183 177 168 136 150 178 197 200 193 210 201 199 201 211 226 214 203
252 255 255 251 256 285 273 279 357 23 125 154 131 130 117 101 101 114 114 113 117 125 120 89 104 112 159 203 203 191 166 176 255 255 231 197 217 230 228 215 223 224 215 213
250 259 260 261 317 327 288 245 22 28 17 137 130 182 102 80 80 88 87 88 84 74 70 65 62 61 338 308 296 277 256 283 277 278 287 269 240 237 239 234 230 224 218 227
246 255 259 325 331 303 264 330 19 26 53 68 90 71 104 94 80 75 72 76 69 59 54 49 47 53 359 322 316 329 326 308 280 267 264 255 240 238 232 251 246 233 227 230
246 249 243 16 19 42 50 27 18 15 28 60 85 95 105 100 88 81 69 67 64 59 45 36 33 30 354 329 322 339 347 340 333 308 279 261 237 257 252 252 256 252 249 251
256 242 81 64 65 64 61 53 16 352 64 98 106 107 106 105 100 89 76 63 64 64 41 23 20 4 330 335 346 356 18 10 337 310 295 296 248 250 259 242 249 263 262 264
247 136 80 51 60 51 42 41 28 44 83 105 103 106 113 113 111 111 118 116 101 84 39 3 352 343 338 341 344 346 345 323 281 282 283 299 278 259 253 253 243 248 258 269
259 241 191 47 42 40 36 32 49 50 87 102 104 111 105 109 127 128 86 83 105 107 11 329 340 335 332 339 339 320 310 294 285 281 281 262 262 272 257 260 235 245 269 271
256 315 323 23 44 44 38 42 42 43 55 67 103 145 110 82 56 25 27 28 11 353 327 326 333 332 337 335 325 303 293 300 298 287 287 280 264 278 355 229 182 189 225 255
24 46 32 12 23 30 29 36 34 37 20 339 332 28 90 94 79 14 16 18 358 334 321 326 332 335 341 328 325 323 309 305 305 303 299 291 285 266 263 248 216 225 227 229
46 52 24 360 10 30 38 39 36 30 9 333 342 60 87 55 28 14 346 332 330 327 324 323 326 325 328 326 330 319 306 298 295 287 285 280 280 272 265 256 250 254 240 224
41 23 7 26 19 36 36 34 19 2 8 355 358 0 15 4 347 338 335 325 320 304 312 316 318 325 325 314 312 299 291 288 289 291 287 284 285 279 276 274 263 256 243 224
325 340 12 21 349 15 30 22 13 12 12 360 352 5 3 344 338 336 325 324 319 306 320 319 311 314 307 295 289 279 267 270 273 276 278 278 278 279 278 280 277 270 257 237
255 271 275 308 325 357 7 4 358 349 355 359 8 15 4 359 354 344 326 315 315 297 293 301 305 306 297 295 291 285 275 263 260 268 270 273 277 279 279 275 275 276 273 219
216 197 138 79 331 328 347 344 348 356 358 2 3 1 336 327 317 320 321 323 326 312 301 298 303 294 287 292 288 284 284 274 269 271 271 277 280 279 282 286 285 280 280 247
124 116 122 134 211 304 339 319 322 12 18 8 6 351 340 332 325 310 311 313 307 304 313 312 300 291 293 296 289 278 280 279 274 273 274 272 273 283 283 279 279 281 286 287
121 101 86 68 49 50 38 19 30 35 32 16 2 359 349 332 322 312 304 300 310 321 321 318 306 299 298 308 304 289 285 283 281 277 277 280 282 289 294 293 293 298 303 307
114 116 99 66 47 43 48 42 39 35 25 15 7 359 342 332 330 323 309 310 341 338 318 303 302 309 309 308 290 284 292 294 289 285 286 289 291 291 293 299 299 301 306 315
67 80 77 66 56 50 45 43 41 33 20 6 353 350 340 332 327 328 335 332 330 342 325 322 332 336 328 312 295 294 294 290 290 290 293 299 298 302 303 312 313 316 328 346
43 55 62 67 66 48 35 23 18 11 2 355 354 350 339 331 327 330 332 333 329 349 336 346 351 346 329 310 306 310 310 304 295 288 283 274 271 290 311 320 326 329 339 348
120 88 93 100 105 71 352 325 339 358 340 316 316 311 309 316 325 336 327 343 4 359 340 359 353 340 322 315 314 311 307 302 297 291 284 280 280 276 308 327 332 326 330 349
150 161 175 181 183 200 189 279 302 311 298 308 319 313 309 325 319 323 335 356 9 335 328 328 308 313 312 321 322 319 319 323 323 317 314 321 311 307 323 333 326 318 318 348
177 194 184 199 214 238 231 229 253 290 306 321 335 346 358 355 331 322 326 335 346 338 332 340 328 307 314 323 330 328 326 332 337 335 339 343 336 340 359 2 353 351 356 9
188 182 193 200 189 221 243 239 274 306 326 345 344 357 4 355 352 352 346 341 340 340 344 342 334 329 331 340 347 344 340 347 351 353 352 356 0 1 6 25 16 10 9 9
Height
1458 1453 1454 1457 1457 1457 1460 1463 1471 1470 1472 1472 1473 1475 1479 1483 1486 1489 1493 1495 1498 1500 1502 1504 1505 1505 1506 1507 1508 1509 1510 1511 1511 1511 1511 1512 1512 1512 1512 1513 1513 1513 1513 1513
1463 1455 1453 1455 1453 1453 1455 1456 1460 1465 1470 1468 1471 1475 1479 1482 1486 1489 1492 1495 1498 1500 1502 1503 1504 1505 1505 1506 1507 1508 1508 1509 1509 1509 1510 1510 1510 1510 1510 1510 1511 1511 1511 1511
1470 1458 1458 1463 1453 1454 1455 1453 1457 1466 1468 1468 1471 1476 1479 1482 1485 1488 1492 1495 1498 1499 1501 1502 1503 1504 1505 1505 1506 1507 1507 1508 1508 1508 1508 1508 1509 1508 1508 1508 1508 1508 1509 1508
1470 1468 1480 1461 1447 1449 1453 1454 1455 1460 1465 1469 1473 1477 1480 1483 1486 1489 1492 1495 1497 1499 1500 1501 1502 1503 1504 1504 1505 1505 1506 1506 1506 1506 1506 1506 1506 1506 1506 1506 1506 1505 1505 1506
1471 1473 1468 1456 1452 1453 1458 1461 1459 1462 1465 1469 1473 1477 1481 1485 1487 1489 1492 1494 1496 1498 1499 1500 1501 1501 1502 1502 1503 1503 1503 1503 1504 1504 1503 1503 1503 1504 1504 1504 1503 1503 1503 1503
1471 1478 1479 1465 1456 1456 1460 1467 1463 1465 1467 1470 1473 1478 1484 1486 1488 1490 1492 1493 1495 1497 1498 1498 1499 1500 1500 1501 1501 1501 1501 1501 1501 1501 1501 1500 1501 1501 1501 1501 1501 1500 1500 1500
1471 1474 1469 1460 1458 1460 1474 1476 1469 1470 1472 1473 1476 1480 1485 1487 1489 1491 1492 1493 1495 1496 1497 1497 1498 1498 1498 1499 1499 1499 1499 1499 1498 1498 1498 1498 1498 1498 1498 1498 1498 1498 1497 1497
1468 1475 1478 1464 1462 1469 1475 1473 1472 1474 1475 1476 1479 1482 1485 1487 1489 1491 1492 1493 1494 1494 1495 1496 1496 1496 1496 1496 1496 1496 1496 1496 1496 1496 1496 1495 1495 1495 1496 1496 1495 1495 1495 1495
1466 1471 1468 1467 1468 1471 1472 1474 1476 1477 1478 1478 1480 1482 1485 1487 1489 1490 1492 1493 1493 1493 1494 1495 1495 1494 1494 1494 1494 1494 1494 1493 1494 1494 1493 1493 1492 1492 1493 1492 1492 1493 1493 1492
1465 1465 1467 1469 1470 1472 1473 1475 1477 1478 1479 1480 1481 1483 1485 1486 1488 1490 1491 1492 1493 1493 1493 1493 1493 1493 1493 1492 1492 1492 1491 1491 1491 1491 1491 1491 1490 1490 1490 1490 1489 1489 1489 1489
1466 1466 1468 1469 1472 1474 1475 1476 1477 1478 1479 1480 1482 1484 1485 1487 1488 1489 1490 1491 1491 1491 1491 1491 1492 1491 1491 1490 1490 1490 1489 1489 1489 1489 1489 1488 1488 1488 1487 1487 1487 1486 1486 1485
1468 1469 1469 1471 1473 1474 1475 1476 1477 1478 1479 1481 1483 1484 1485 1486 1487 1488 1488 1489 1489 1489 1490 1490 1489 1489 1488 1488 1488 1487 1487 1487 1487 1487 1487 1486 1485 1485 1484 1484 1483 1482 1482 1482
1468 1469 1471 1472 1474 1474 1476 1477 1478 1479 1480 1482 1483 1484 1484 1485 1486 1487 1486 1487 1487 1487 1487 1487 1487 1487 1486 1486 1485 1485 1485 1485 1485 1485 1484 1484 1483 1482 1481 1480 1479 1479 1478 1478
1471 1471 1473 1474 1475 1476 1477 1478 1478 1479 1480 1481 1482 1483 1483 1484 1485 1485 1485 1485 1485 1485 1485 1485 1485 1485 1484 1484 1483 1483 1483 1483 1482 1482 1482 1481 1480 1479 1478 1476 1475 1474 1474 1473
1473 1474 1475 1476 1476 1477 1477 1478 1478 1478 1479 1481 1481 1482 1482 1483 1483 1483 1484 1484 1484 1483 1483 1483 1483 1482 1482 1482 1481 1480 1480 1480 1479 1479 1479 1478 1477 1476 1475 1474 1472 1471 1470 1469
1474 1475 1475 1477 1477 1477 1478 1478 1478 1479 1479 1480 1481 1481 1481 1481 1481 1481 1482 1482 1481 1481 1480 1480 1480 1480 1479 1479 1478 1477 1477 1477 1477 1476 1476 1475 1474 1473 1472 1471 1469 1468 1468 1467
1474 1475 1476 1477 1478 1478 1478 1479 1479 1479 1479 1480 1480 1480 1480 1480 1480 1480 1480 1479 1479 1478 1478 1478 1477 1477 1476 1476 1475 1475 1474 1473 1473 1473 1472 1472 1471 1470 1469 1468 1466 1465 1464 1463
1474 1475 1475 1476 1477 1478 1478 1479 1479 1479 1479 1479 1479 1478 1478 1478 1478 1478 1477 1477 1476 1476 1475 1475 1474 1474 1473 1472 1472 1471 1471 1470 1470 1469 1468 1468 1467 1466 1465 1464 1463 1462 1461 1460
1473 1474 1475 1476 1478 1478 1478 1479 1479 1478 1478 1478 1477 1477 1477 1477 1476 1476 1476 1475 1474 1473 1472 1472 1471 1470 1470 1469 1468 1468 1467 1467 1466 1466 1465 1464 1463 1462 1462 1461 1460 1459 1458 1457
1473 1474 1475 1476 1477 1478 1479 1478 1478 1478 1478 1478 1477 1476 1476 1475 1475 1474 1473 1472 1471 1470 1470 1469 1468 1467 1466 1465 1465 1464 1464 1464 1463 1462 1461 1460 1459 1458 1457 1457 1456 1456 1455 1455
1473 1474 1475 1476 1477 1477 1478 1478 1478 1478 1478 1477 1477 1476 1475 1474 1473 1472 1471 1470 1469 1468 1467 1466 1465 1464 1463 1462 1462 1461 1461 1460 1460 1459 1458 1457 1456 1455 1454 1454 1453 1453 1452 1452
1474 1474 1475 1476 1477 1477 1477 1478 1478 1478 1477 1477 1476 1475 1474 1473 1472 1470 1469 1468 1467 1466 1465 1464 1462 1461 1460 1459 1458 1458 1458 1457 1456 1456 1455 1454 1453 1452 1452 1451 1450 1450 1450 1449
1474 1474 1475 1476 1476 1476 1477 1477 1477 1477 1477 1476 1475 1474 1473 1472 1471 1469 1468 1467 1465 1464 1463 1461 1460 1458 1457 1456 1456 1455 1454 1454 1453 1453 1452 1451 1451 1450 1449 1449 1448 1448 1448 1447
1474 1475 1475 1475 1475 1476 1476 1476 1476 1476 1476 1475 1474 1473 1472 1471 1469 1468 1467 1465 1464 1462 1461 1459 1458 1456 1455 1454 1453 1452 1451 1451 1450 1449 1449 1448 1448 1447 1447 1447 1446 1446 1446 1445
1473 1474 1474 1474 1475 1475 1475 1475 1475 1475 1474 1474 1473 1472 1471 1470 1469 1467 1466 1464 1462 1461 1459 1458 1456 1455 1453 1452 1451 1450 1450 1449 1448 1447 1446 1445 1445 1445 1445 1444 1444 1444 1443 1442
1473 1473 1473 1474 1474 1474 1474 1474 1474 1474 1473 1473 1473 1472 1470 1469 1468 1466 1465 1463 1462 1460 1459 1457 1456 1454 1453 1451 1450 1449 1448 1447 1446 1445 1444 1444 1443 1443 1443 1442 1442 1441 1441 1440
1472 1472 1472 1473 1473 1473 1473 1473 1473 1473 1473 1472 1472 1471 1470 1469 1468 1466 1464 1463 1461 1460 1458 1457 1456 1454 1453 1451 1450 1449 1448 1446 1446 1445 1444 1443 1442 1441 1441 1440 1440 1439 1439 1438